• In Russia
  • List of Countries
  • For 7 days
  • Water Temperature
  • Weather Map
  • Weather Widgets
  • user-avatar
    Login

    Hourly Weather Nashavar

    Today, 25 January, Saturday

    Time Temperature Precipitation Wind Pressure Humidity
    00:00 +12°C° 0 mm 1 mps 732 mmHg 35%
    01:00 +12°C° 0 mm 1 mps 732 mmHg 36%
    02:00 +11°C° 0 mm 1 mps 732 mmHg 37%
    03:00 +11°C° 0 mm 1 mps 732 mmHg 37%
    04:00 +11°C° 0 mm 1 mps 732 mmHg 38%
    05:00 +10°C° 0 mm 2 mps 731 mmHg 38%
    06:00 +10°C° 0 mm 2 mps 732 mmHg 39%
    07:00 +10°C° 0 mm 2 mps 732 mmHg 40%
    08:00 +10°C° 0 mm 2 mps 732 mmHg 41%
    09:00 +13°C° 0 mm 1 mps 732 mmHg 37%
    10:00 +14°C° 0 mm 1 mps 732 mmHg 33%
    11:00 +16°C° 0 mm 1 mps 732 mmHg 29%
    12:00 +18°C° 0 mm 1 mps 732 mmHg 29%
    13:00 +19°C° 0 mm 1 mps 731 mmHg 28%
    14:00 +18°C° 0 mm 2 mps 731 mmHg 27%
    15:00 +19°C° 0 mm 1 mps 730 mmHg 30%
    16:00 +19°C° 0 mm 1 mps 730 mmHg 33%
    17:00 +18°C° 0 mm 1 mps 730 mmHg 36%
    18:00 +16°C° 0 mm 1 mps 730 mmHg 38%
    19:00 +15°C° 0 mm 1 mps 730 mmHg 39%
    20:00 +14°C° 0 mm 1 mps 731 mmHg 41%
    21:00 +13°C° 0 mm 1 mps 731 mmHg 42%
    22:00 +13°C° 0 mm 1 mps 731 mmHg 42%
    23:00 +13°C° 0 mm 1 mps 731 mmHg 43%

    Tomorrow, 26 January, Sunday

    Time Temperature Precipitation Wind Pressure Humidity
    00:00 +12°C° 0 mm 1 mps 731 mmHg 44%
    01:00 +12°C° 0 mm 1 mps 731 mmHg 45%
    02:00 +11°C° 0 mm 1 mps 731 mmHg 46%
    03:00 +11°C° 0 mm 1 mps 730 mmHg 46%
    04:00 +11°C° 0 mm 1 mps 730 mmHg 46%
    05:00 +11°C° 0 mm 1 mps 730 mmHg 47%
    06:00 +11°C° 0 mm 1 mps 731 mmHg 46%
    07:00 +10°C° 0 mm 2 mps 731 mmHg 45%
    08:00 +10°C° 0 mm 2 mps 731 mmHg 44%
    09:00 +13°C° 0 mm 2 mps 731 mmHg 39%
    10:00 +14°C° 0 mm 2 mps 731 mmHg 34%
    11:00 +16°C° 0 mm 2 mps 731 mmHg 28%
    12:00 +17°C° 0 mm 2 mps 731 mmHg 27%
    13:00 +18°C° 0 mm 2 mps 730 mmHg 26%
    14:00 +18°C° 0 mm 2 mps 729 mmHg 25%
    15:00 +18°C° 0 mm 2 mps 729 mmHg 27%
    16:00 +17°C° 0 mm 2 mps 729 mmHg 29%
    17:00 +17°C° 0 mm 2 mps 729 mmHg 32%
    18:00 +16°C° 0 mm 2 mps 729 mmHg 32%
    19:00 +15°C° 0 mm 2 mps 730 mmHg 33%
    20:00 +13°C° 0 mm 2 mps 730 mmHg 33%
    21:00 +13°C° 0 mm 2 mps 730 mmHg 33%
    22:00 +13°C° 0 mm 2 mps 730 mmHg 34%
    23:00 +12°C° 0 mm 2 mps 730 mmHg 34%

    Day after tomorrow, 27 January, Monday

    Time Temperature Precipitation Wind Pressure Humidity
    00:00 +12°C° 0 mm 2 mps 730 mmHg 34%
    01:00 +12°C° 0 mm 2 mps 730 mmHg 34%
    02:00 +10°C° 0 mm 2 mps 729 mmHg 34%
    03:00 +10°C° 0 mm 2 mps 729 mmHg 34%
    04:00 +10°C° 0 mm 2 mps 729 mmHg 34%
    05:00 +10°C° 0 mm 2 mps 728 mmHg 34%
    06:00 +10°C° 0 mm 2 mps 729 mmHg 34%
    07:00 +10°C° 0 mm 2 mps 729 mmHg 35%
    08:00 +10°C° 0 mm 2 mps 729 mmHg 35%
    09:00 +12°C° 0 mm 2 mps 729 mmHg 31%
    10:00 +14°C° 0 mm 2 mps 729 mmHg 28%
    11:00 +16°C° 0 mm 2 mps 730 mmHg 24%
    12:00 +16°C° 0 mm 2 mps 729 mmHg 24%
    13:00 +17°C° 0 mm 2 mps 728 mmHg 23%
    14:00 +18°C° 0 mm 2 mps 727 mmHg 22%
    15:00 +17°C° 0 mm 2 mps 727 mmHg 25%
    16:00 +17°C° 0 mm 2 mps 727 mmHg 27%
    17:00 +16°C° 0 mm 2 mps 727 mmHg 29%
    18:00 +16°C° 0 mm 2 mps 727 mmHg 29%
    19:00 +15°C° 0 mm 2 mps 728 mmHg 30%
    20:00 +14°C° 0 mm 2 mps 728 mmHg 30%
    21:00 +14°C° 0 mm 2 mps 728 mmHg 30%
    22:00 +14°C° 0 mm 2 mps 728 mmHg 30%
    23:00 +14°C° 0 mm 2 mps 728 mmHg 30%

    28 January, Tuesday

    Time Temperature Precipitation Wind Pressure Humidity
    00:00 +14°C° 0 mm 2 mps 728 mmHg 33%
    01:00 +13°C° 0 mm 1 mps 728 mmHg 35%
    02:00 +13°C° 0 mm 1 mps 727 mmHg 37%
    03:00 +13°C° 0 mm 1 mps 727 mmHg 39%
    04:00 +12°C° 0 mm 1 mps 727 mmHg 41%
    05:00 +12°C° 0 mm 1 mps 727 mmHg 42%
    06:00 +12°C° 0 mm 1 mps 727 mmHg 43%
    07:00 +12°C° 0 mm 1 mps 727 mmHg 43%
    08:00 +12°C° 0 mm 1 mps 728 mmHg 43%
    09:00 +12°C° 0.1 mm 2 mps 728 mmHg 42%
    10:00 +12°C° 0.1 mm 2 mps 728 mmHg 41%
    11:00 +12°C° 0.1 mm 3 mps 728 mmHg 40%
    12:00 +12°C° 0.3 mm 3 mps 727 mmHg 42%
    13:00 +12°C° 0.3 mm 3 mps 726 mmHg 44%
    14:00 +11°C° 0.3 mm 3 mps 726 mmHg 45%
    15:00 +11°C° 0.2 mm 3 mps 726 mmHg 48%
    16:00 +11°C° 0.2 mm 3 mps 726 mmHg 50%
    17:00 +12°C° 0.2 mm 2 mps 726 mmHg 53%
    18:00 +12°C° 0.1 mm 2 mps 727 mmHg 54%
    19:00 +12°C° 0.1 mm 2 mps 727 mmHg 54%
    20:00 +10°C° 0.1 mm 2 mps 728 mmHg 55%
    21:00 +11°C° 0.4 mm 1 mps 728 mmHg 64%
    22:00 +10°C° 0.4 mm 1 mps 728 mmHg 72%
    23:00 +9°C° 0.4 mm 1 mps 728 mmHg 81%

    29 January, Wednesday

    Time Temperature Precipitation Wind Pressure Humidity
    00:00 +9°C° 0.2 mm 1 mps 728 mmHg 81%
    01:00 +9°C° 0.2 mm 1 mps 728 mmHg 81%
    02:00 +9°C° 0.2 mm 1 mps 727 mmHg 80%
    03:00 +9°C° 0 mm 1 mps 728 mmHg 77%
    04:00 +9°C° 0 mm 1 mps 728 mmHg 73%
    05:00 +10°C° 0 mm 1 mps 728 mmHg 69%
    06:00 +10°C° 0 mm 1 mps 728 mmHg 66%
    07:00 +10°C° 0 mm 1 mps 729 mmHg 64%
    08:00 +10°C° 0 mm 1 mps 729 mmHg 62%
    09:00 +11°C° 0 mm 1 mps 730 mmHg 58%
    10:00 +12°C° 0 mm 1 mps 730 mmHg 55%
    11:00 +12°C° 0 mm 1 mps 731 mmHg 51%
    12:00 +13°C° 0 mm 1 mps 731 mmHg 49%
    13:00 +14°C° 0 mm 1 mps 730 mmHg 48%
    14:00 +15°C° 0 mm 1 mps 730 mmHg 46%
    15:00 +15°C° 0 mm 1 mps 730 mmHg 47%
    16:00 +15°C° 0 mm 1 mps 730 mmHg 48%
    17:00 +15°C° 0 mm 1 mps 730 mmHg 50%
    18:00 +14°C° 0 mm 1 mps 731 mmHg 51%
    19:00 +13°C° 0 mm 1 mps 731 mmHg 53%
    20:00 +12°C° 0 mm 1 mps 732 mmHg 55%
    21:00 +12°C° 0 mm 1 mps 732 mmHg 51%
    22:00 +10°C° 0 mm 2 mps 732 mmHg 47%
    23:00 +10°C° 0 mm 2 mps 732 mmHg 43%

    30 January, Thursday

    Time Temperature Precipitation Wind Pressure Humidity
    00:00 +10°C° 0 mm 2 mps 732 mmHg 42%
    01:00 +11°C° 0 mm 1 mps 732 mmHg 40%
    02:00 +10°C° 0 mm 1 mps 732 mmHg 39%
    03:00 +10°C° 0 mm 1 mps 732 mmHg 42%
    04:00 +9°C° 0 mm 1 mps 731 mmHg 44%
    05:00 +9°C° 0 mm 1 mps 731 mmHg 47%
    06:00 +9°C° 0 mm 1 mps 731 mmHg 48%
    07:00 +9°C° 0 mm 1 mps 732 mmHg 49%
    08:00 +9°C° 0 mm 1 mps 732 mmHg 50%
    09:00 +11°C° 0 mm 1 mps 732 mmHg 43%
    10:00 +13°C° 0 mm 1 mps 732 mmHg 36%
    11:00 +15°C° 0 mm 1 mps 732 mmHg 28%
    12:00 +15°C° 0 mm 1 mps 732 mmHg 27%
    13:00 +16°C° 0 mm 1 mps 731 mmHg 26%
    14:00 +18°C° 0 mm 1 mps 731 mmHg 25%
    15:00 +18°C° 0 mm 1 mps 730 mmHg 28%
    16:00 +18°C° 0 mm 1 mps 730 mmHg 30%
    17:00 +16°C° 0 mm 1 mps 730 mmHg 33%
    18:00 +15°C° 0 mm 1 mps 730 mmHg 34%
    19:00 +14°C° 0 mm 1 mps 730 mmHg 35%
    20:00 +13°C° 0 mm 1 mps 731 mmHg 36%
    21:00 +12°C° 0 mm 1 mps 731 mmHg 37%
    22:00 +12°C° 0 mm 1 mps 731 mmHg 37%
    23:00 +12°C° 0 mm 1 mps 731 mmHg 38%
    Show more